"Sample Date","Sample Time","Sensor Name","Sample Value","Units","Flow Rate","Sample Interval","Sample Volume","Laser Status","Number Channels","Micron Size 0","Counts/Channel 0","Micron Size 1","Counts/Channel 1","Micron Size 2","Counts/Channel 2","Micron Size 3","Counts/Channel 3","Micron Size 4","Counts/Channel 4","Micron Size 5","Counts/Channel 5","Micron Size 6","Counts/Channel 6","Micron Size 7","Counts/Channel 7","Micron Size 8","Counts/Channel 8","Micron Size 9","Counts/Channel 9","Micron Size 10","Counts/Channel 10","Micron Size 11","Counts/Channel 11","Micron Size 12","Counts/Channel 12","Micron Size 13","Counts/Channel 13","Micron Size 14","Counts/Channel 14","Micron Size 15","Counts/Channel 15","Micron Size 16","Counts/Channel 16","Micron Size 17","Counts/Channel 17","Micron Size 18","Counts/Channel 18","Micron Size 19","Counts/Channel 19","Micron Size 20","Counts/Channel 20","Micron Size 21","Counts/Channel 21","Micron Size 22","Counts/Channel 22","Micron Size 23","Counts/Channel 23","Micron Size 24","Counts/Channel 24","Micron Size 25","Counts/Channel 25","Micron Size 26","Counts/Channel 26","Micron Size 27","Counts/Channel 27","Micron Size 28","Counts/Channel 28","Micron Size 29","Counts/Channel 29","Micron Size 30","Counts/Channel 30","Micron Size 31","Counts/Channel 31"
"07/01/06","17:00:01","AMMA06",56043.000,"cc",28319.678,6.00,2831.968,1,6,0.100,31740.000,0.200,19778.000,0.300,2912.000,0.500,983.000,1.000,629.000,5.000,1.000
"07/01/06","17:00:07","AMMA06",56196.000,"cc",28350.494,6.00,2835.050,1,6,0.100,31821.000,0.200,19817.000,0.300,2994.000,0.500,959.000,1.000,605.000,5.000,0
"07/01/06","17:00:13","AMMA06",55741.000,"cc",28263.031,6.00,2826.303,1,6,0.100,31593.000,0.200,19596.000,0.300,2947.000,0.500,956.000,1.000,648.000,5.000,1.000
"07/01/06","17:00:19","AMMA06",56245.000,"cc",28332.006,6.00,2833.201,1,6,0.100,31956.000,0.200,19745.000,0.300,2967.000,0.500,960.000,1.000,617.000,5.000,0
"07/01/06","17:00:25","AMMA06",55874.000,"cc",28331.229,6.00,2833.123,1,6,0.100,31752.000,0.200,19614.000,0.300,2954.000,0.500,967.000,1.000,587.000,5.000,0
"07/01/06","17:00:31","AMMA06",56112.000,"cc",28299.432,6.00,2829.943,1,6,0.100,31825.000,0.200,19726.000,0.300,2911.000,0.500,1031.000,1.000,619.000,5.000,0
"07/01/06","17:00:37","AMMA06",56506.000,"cc",28308.297,6.00,2830.830,1,6,0.100,32197.000,0.200,19755.000,0.300,2942.000,0.500,978.000,1.000,634.000,5.000,0
"07/01/06","17:00:43","AMMA06",56558.000,"cc",28267.490,6.00,2826.749,1,6,0.100,32322.000,0.200,19829.000,0.300,2902.000,0.500,952.000,1.000,552.000,5.000,1.000
"07/01/06","17:00:49","AMMA06",55924.000,"cc",28390.508,6.00,2839.051,1,6,0.100,32018.000,0.200,19448.000,0.300,2861.000,0.500,984.000,1.000,612.000,5.000,1.000
"07/01/06","17:00:55","AMMA06",55986.000,"cc",28325.947,6.00,2832.595,1,6,0.100,31627.000,0.200,19839.000,0.300,2917.000,0.500,991.000,1.000,612.000,5.000,0
"07/01/06","17:01:01","AMMA06",56326.000,"cc",28291.561,6.00,2829.156,1,6,0.100,31933.000,0.200,19881.000,0.300,2907.000,0.500,987.000,1.000,618.000,5.000,0
"07/01/06","17:01:07","AMMA06",56353.000,"cc",28371.680,6.00,2837.168,1,6,0.100,31974.000,0.200,19978.000,0.300,2811.000,0.500,942.000,1.000,645.000,5.000,3.000
"07/01/06","17:01:13","AMMA06",56264.000,"cc",28362.760,6.00,2836.276,1,6,0.100,31725.000,0.200,20075.000,0.300,2862.000,0.500,965.000,1.000,635.000,5.000,2.000
"07/01/06","17:01:19","AMMA06",56479.000,"cc",28289.508,6.00,2828.951,1,6,0.100,31937.000,0.200,20019.000,0.300,2953.000,0.500,955.000,1.000,615.000,5.000,0
"07/01/06","17:01:25","AMMA06",55588.000,"cc",28309.578,6.00,2830.958,1,6,0.100,31394.000,0.200,19769.000,0.300,2860.000,0.500,947.000,1.000,618.000,5.000,0
"07/01/06","17:01:31","AMMA06",56468.000,"cc",28331.332,6.00,2833.133,1,6,0.100,31754.000,0.200,20223.000,0.300,2864.000,0.500,1026.000,1.000,600.000,5.000,1.000
"07/01/06","17:01:37","AMMA06",56408.000,"cc",28302.588,6.00,2830.259,1,6,0.100,32110.000,0.200,19870.000,0.300,2883.000,0.500,930.000,1.000,615.000,5.000,0
"07/01/06","17:01:43","AMMA06",56564.000,"cc",28390.834,6.00,2839.084,1,6,0.100,31768.000,0.200,20237.000,0.300,2894.000,0.500,1011.000,1.000,653.000,5.000,1.000
"07/01/06","17:01:49","AMMA06",56270.000,"cc",28297.068,6.00,2829.707,1,6,0.100,31609.000,0.200,20116.000,0.300,2907.000,0.500,1026.000,1.000,612.000,5.000,0
"07/01/06","17:01:55","AMMA06",56683.000,"cc",28295.816,6.00,2829.582,1,6,0.100,31977.000,0.200,20159.000,0.300,3003.000,0.500,946.000,1.000,598.000,5.000,0
"07/01/06","17:02:01","AMMA06",56704.000,"cc",28311.805,6.00,2831.181,1,6,0.100,31898.000,0.200,20296.000,0.300,2892.000,0.500,975.000,1.000,643.000,5.000,0
"07/01/06","17:02:07","AMMA06",56797.000,"cc",28308.494,6.00,2830.850,1,6,0.100,31907.000,0.200,20384.000,0.300,2934.000,0.500,952.000,1.000,620.000,5.000,0
"07/01/06","17:02:13","AMMA06",56714.000,"cc",28231.152,6.00,2823.116,1,6,0.100,32040.000,0.200,20098.000,0.300,2971.000,0.500,962.000,1.000,643.000,5.000,0
"07/01/06","17:02:19","AMMA06",56476.000,"cc",28345.893,6.00,2834.589,1,6,0.100,31799.000,0.200,20238.000,0.300,2921.000,0.500,947.000,1.000,570.000,5.000,1.000
"07/01/06","17:02:25","AMMA06",55981.000,"cc",28363.529,6.00,2836.353,1,6,0.100,31440.000,0.200,19952.000,0.300,2905.000,0.500,1055.000,1.000,629.000,5.000,0
"07/01/06","17:02:31","AMMA06",56495.000,"cc",28295.088,6.00,2829.509,1,6,0.100,31787.000,0.200,20221.000,0.300,2941.000,0.500,935.000,1.000,611.000,5.000,0
"07/01/06","17:02:37","AMMA06",56392.000,"cc",28313.217,6.00,2831.322,1,6,0.100,31716.000,0.200,20110.000,0.300,3017.000,0.500,917.000,1.000,632.000,5.000,0
"07/01/06","17:02:43","AMMA06",56508.000,"cc",28327.309,6.00,2832.731,1,6,0.100,31752.000,0.200,20159.000,0.300,2984.000,0.500,996.000,1.000,617.000,5.000,0
"07/01/06","17:02:49","AMMA06",56330.000,"cc",28300.721,6.00,2830.072,1,6,0.100,31584.000,0.200,20113.000,0.300,3054.000,0.500,975.000,1.000,604.000,5.000,0
"07/01/06","17:02:55","AMMA06",56353.000,"cc",28341.660,6.00,2834.166,1,6,0.100,31659.000,0.200,20104.000,0.300,2955.000,0.500,1018.000,1.000,617.000,5.000,0
"07/01/06","17:03:01","AMMA06",56745.000,"cc",28321.902,6.00,2832.190,1,6,0.100,31846.000,0.200,20428.000,0.300,2958.000,0.500,895.000,1.000,618.000,5.000,0
"07/01/06","17:03:07","AMMA06",56242.000,"cc",28299.576,6.00,2829.958,1,6,0.100,31679.000,0.200,19953.000,0.300,3017.000,0.500,947.000,1.000,646.000,5.000,0
"07/01/06","17:03:13","AMMA06",56636.000,"cc",28304.779,6.00,2830.478,1,6,0.100,31892.000,0.200,20138.000,0.300,2890.000,0.500,1042.000,1.000,674.000,5.000,0
"07/01/06","17:03:19","AMMA06",56637.000,"cc",28296.947,6.00,2829.695,1,6,0.100,31862.000,0.200,20127.000,0.300,3016.000,0.500,984.000,1.000,647.000,5.000,1.000
"07/01/06","17:03:25","AMMA06",56464.000,"cc",28277.797,6.00,2827.780,1,6,0.100,31874.000,0.200,20045.000,0.300,2935.000,0.500,991.000,1.000,618.000,5.000,1.000
"07/01/06","17:03:31","AMMA06",56681.000,"cc",28371.973,6.00,2837.198,1,6,0.100,31765.000,0.200,20253.000,0.300,3028.000,0.500,1006.000,1.000,629.000,5.000,0
"07/01/06","17:03:37","AMMA06",56687.000,"cc",28411.268,6.00,2841.127,1,6,0.100,32070.000,0.200,20051.000,0.300,2972.000,0.500,989.000,1.000,605.000,5.000,0
"07/01/06","17:03:43","AMMA06",56512.000,"cc",28280.193,6.00,2828.020,1,6,0.100,31709.000,0.200,20301.000,0.300,2892.000,0.500,1014.000,1.000,595.000,5.000,1.000
"07/01/06","17:03:49","AMMA06",56615.000,"cc",28332.106,6.00,2833.211,1,6,0.100,31995.000,0.200,19966.000,0.300,3039.000,0.500,982.000,1.000,632.000,5.000,1.000
"07/01/06","17:03:55","AMMA06",56595.000,"cc",28358.348,6.00,2835.835,1,6,0.100,31816.000,0.200,20248.000,0.300,2953.000,0.500,975.000,1.000,603.000,5.000,0
"07/01/06","17:04:01","AMMA06",57177.000,"cc",28285.063,6.00,2828.506,1,6,0.100,32125.000,0.200,20408.000,0.300,3024.000,0.500,944.000,1.000,674.000,5.000,2.000
"07/01/06","17:04:07","AMMA06",56888.000,"cc",28301.033,6.00,2830.104,1,6,0.100,31868.000,0.200,20470.000,0.300,2953.000,0.500,960.000,1.000,637.000,5.000,0
"07/01/06","17:04:13","AMMA06",56705.000,"cc",28346.014,6.00,2834.602,1,6,0.100,31543.000,0.200,20475.000,0.300,2978.000,0.500,1060.000,1.000,648.000,5.000,1.000
"07/01/06","17:04:19","AMMA06",56809.000,"cc",28350.697,6.00,2835.070,1,6,0.100,31640.000,0.200,20587.000,0.300,2940.000,0.500,1020.000,1.000,622.000,5.000,0
"07/01/06","17:04:25","AMMA06",56825.000,"cc",28281.309,6.00,2828.131,1,6,0.100,31769.000,0.200,20382.000,0.300,3035.000,0.500,999.000,1.000,640.000,5.000,0
"07/01/06","17:04:31","AMMA06",56682.000,"cc",28284.236,6.00,2828.424,1,6,0.100,31682.000,0.200,20327.000,0.300,2979.000,0.500,1013.000,1.000,680.000,5.000,1.000
"07/01/06","17:04:37","AMMA06",56846.000,"cc",28345.746,6.00,2834.575,1,6,0.100,31723.000,0.200,20485.000,0.300,2997.000,0.500,982.000,1.000,658.000,5.000,1.000
"07/01/06","17:04:43","AMMA06",56347.000,"cc",28346.453,6.00,2834.646,1,6,0.100,31550.000,0.200,20210.000,0.300,2990.000,0.500,972.000,1.000,625.000,5.000,0
"07/01/06","17:04:49","AMMA06",56375.000,"cc",28285.039,6.00,2828.504,1,6,0.100,31434.000,0.200,20432.000,0.300,2944.000,0.500,955.000,1.000,610.000,5.000,0
"07/01/06","17:04:55","AMMA06",57021.000,"cc",28292.801,6.00,2829.280,1,6,0.100,31768.000,0.200,20815.000,0.300,2872.000,0.500,952.000,1.000,613.000,5.000,1.000
"07/01/06","17:05:01","AMMA06",56648.000,"cc",28328.697,6.00,2832.870,1,6,0.100,31555.000,0.200,20414.000,0.300,3041.000,0.500,1049.000,1.000,587.000,5.000,2.000
"07/01/06","17:05:07","AMMA06",56887.000,"cc",28321.815,6.00,2832.182,1,6,0.100,31797.000,0.200,20323.000,0.300,3087.000,0.500,1010.000,1.000,670.000,5.000,0
"07/01/06","17:05:13","AMMA06",56709.000,"cc",28307.523,6.00,2830.752,1,6,0.100,31691.000,0.200,20348.000,0.300,3085.000,0.500,995.000,1.000,590.000,5.000,0
"07/01/06","17:05:19","AMMA06",56578.000,"cc",28293.377,6.00,2829.338,1,6,0.100,31582.000,0.200,20363.000,0.300,3043.000,0.500,978.000,1.000,612.000,5.000,0
"07/01/06","17:05:25","AMMA06",56566.000,"cc",28344.744,6.00,2834.475,1,6,0.100,31638.000,0.200,20351.000,0.300,2938.000,0.500,978.000,1.000,661.000,5.000,0
"07/01/06","17:05:31","AMMA06",56588.000,"cc",28351.346,6.00,2835.135,1,6,0.100,31911.000,0.200,20143.000,0.300,2926.000,0.500,978.000,1.000,630.000,5.000,0
"07/01/06","17:05:37","AMMA06",55863.000,"cc",28303.182,6.00,2830.318,1,6,0.100,31309.000,0.200,20024.000,0.300,2955.000,0.500,956.000,1.000,618.000,5.000,1.000
"07/01/06","17:05:43","AMMA06",56410.000,"cc",28332.440,6.00,2833.244,1,6,0.100,31573.000,0.200,20237.000,0.300,3019.000,0.500,969.000,1.000,610.000,5.000,2.000
"07/01/06","17:05:49","AMMA06",56380.000,"cc",28271.065,6.00,2827.107,1,6,0.100,31438.000,0.200,20305.000,0.300,3015.000,0.500,993.000,1.000,628.000,5.000,1.000
"07/01/06","17:05:55","AMMA06",57048.000,"cc",28282.162,6.00,2828.216,1,6,0.100,32084.000,0.200,20351.000,0.300,3006.000,0.500,996.000,1.000,610.000,5.000,1.000
"07/01/06","17:06:01","AMMA06",56990.000,"cc",28312.484,6.00,2831.249,1,6,0.100,32172.000,0.200,20232.000,0.300,2988.000,0.500,993.000,1.000,604.000,5.000,1.000
"07/01/06","17:06:07","AMMA06",56752.000,"cc",28332.982,6.00,2833.298,1,6,0.100,32027.000,0.200,20171.000,0.300,3014.000,0.500,955.000,1.000,585.000,5.000,0
"07/01/06","17:06:13","AMMA06",57122.000,"cc",28335.807,6.00,2833.581,1,6,0.100,32124.000,0.200,20307.000,0.300,3061.000,0.500,1002.000,1.000,628.000,5.000,0
"07/01/06","17:06:19","AMMA06",56460.000,"cc",28315.322,6.00,2831.533,1,6,0.100,31852.000,0.200,20077.000,0.300,2962.000,0.500,978.000,1.000,591.000,5.000,0
"07/01/06","17:06:25","AMMA06",56354.000,"cc",28282.836,6.00,2828.284,1,6,0.100,31884.000,0.200,19866.000,0.300,2971.000,0.500,1005.000,1.000,627.000,5.000,1.000
"07/01/06","17:06:31","AMMA06",56399.000,"cc",28293.690,6.00,2829.369,1,6,0.100,31966.000,0.200,19897.000,0.300,2923.000,0.500,972.000,1.000,641.000,5.000,0
"07/01/06","17:06:37","AMMA06",56709.000,"cc",28296.549,6.00,2829.655,1,6,0.100,32145.000,0.200,20068.000,0.300,2982.000,0.500,911.000,1.000,603.000,5.000,0
"07/01/06","17:06:43","AMMA06",56533.000,"cc",28339.750,6.00,2833.975,1,6,0.100,32026.000,0.200,20029.000,0.300,2972.000,0.500,948.000,1.000,557.000,5.000,1.000
"07/01/06","17:06:49","AMMA06",56881.000,"cc",28371.006,6.00,2837.101,1,6,0.100,32486.000,0.200,19966.000,0.300,2875.000,0.500,946.000,1.000,607.000,5.000,1.000
"07/01/06","17:06:55","AMMA06",56849.000,"cc",28292.137,6.00,2829.214,1,6,0.100,32412.000,0.200,19899.000,0.300,2884.000,0.500,1015.000,1.000,637.000,5.000,2.000
"07/01/06","17:07:01","AMMA06",56525.000,"cc",28352.381,6.00,2835.238,1,6,0.100,31902.000,0.200,20050.000,0.300,2919.000,0.500,1016.000,1.000,638.000,5.000,0
"07/01/06","17:07:07","AMMA06",56021.000,"cc",28327.582,6.00,2832.758,1,6,0.100,31847.000,0.200,19753.000,0.300,2851.000,0.500,960.000,1.000,609.000,5.000,1.000
"07/01/06","17:07:13","AMMA06",56371.000,"cc",28327.617,6.00,2832.762,1,6,0.100,32032.000,0.200,19880.000,0.300,2889.000,0.500,972.000,1.000,597.000,5.000,1.000
"07/01/06","17:07:19","AMMA06",56291.000,"cc",28296.885,6.00,2829.689,1,6,0.100,31799.000,0.200,19869.000,0.300,2982.000,0.500,975.000,1.000,663.000,5.000,3.000
"07/01/06","17:07:25","AMMA06",56205.000,"cc",28317.662,6.00,2831.766,1,6,0.100,31850.000,0.200,19881.000,0.300,2893.000,0.500,971.000,1.000,610.000,5.000,0
"07/01/06","17:07:31","AMMA06",56748.000,"cc",28336.461,6.00,2833.646,1,6,0.100,32168.000,0.200,19965.000,0.300,3029.000,0.500,1002.000,1.000,584.000,5.000,0
"07/01/06","17:07:37","AMMA06",56851.000,"cc",28376.453,6.00,2837.646,1,6,0.100,32145.000,0.200,20144.000,0.300,2901.000,0.500,1013.000,1.000,648.000,5.000,0
"07/01/06","17:07:43","AMMA06",56557.000,"cc",28269.647,6.00,2826.965,1,6,0.100,32147.000,0.200,19979.000,0.300,2798.000,0.500,1015.000,1.000,617.000,5.000,1.000
"07/01/06","17:07:49","AMMA06",56322.000,"cc",28297.969,6.00,2829.797,1,6,0.100,31865.000,0.200,19976.000,0.300,2854.000,0.500,968.000,1.000,658.000,5.000,1.000
"07/01/06","17:07:55","AMMA06",56639.000,"cc",28282.002,6.00,2828.200,1,6,0.100,32138.000,0.200,20055.000,0.300,2804.000,0.500,1015.000,1.000,626.000,5.000,1.000
"07/01/06","17:08:01","AMMA06",57047.000,"cc",28308.816,6.00,2830.882,1,6,0.100,32188.000,0.200,20185.000,0.300,2999.000,0.500,1054.000,1.000,620.000,5.000,1.000
"07/01/06","17:08:07","AMMA06",56898.000,"cc",28269.619,6.00,2826.962,1,6,0.100,32413.000,0.200,19890.000,0.300,2949.000,0.500,1013.000,1.000,633.000,5.000,0
"07/01/06","17:08:13","AMMA06",57094.000,"cc",28325.512,6.00,2832.551,1,6,0.100,32365.000,0.200,20163.000,0.300,2934.000,0.500,1025.000,1.000,605.000,5.000,2.000
"07/01/06","17:08:19","AMMA06",57122.000,"cc",28334.361,6.00,2833.436,1,6,0.100,32294.000,0.200,20299.000,0.300,2892.000,0.500,1028.000,1.000,609.000,5.000,0
"07/01/06","17:08:25","AMMA06",56683.000,"cc",28297.000,6.00,2829.700,1,6,0.100,31812.000,0.200,20318.000,0.300,2911.000,0.500,978.000,1.000,664.000,5.000,0
"07/01/06","17:08:31","AMMA06",56599.000,"cc",28355.477,6.00,2835.548,1,6,0.100,31852.000,0.200,20178.000,0.300,2891.000,0.500,995.000,1.000,683.000,5.000,0
"07/01/06","17:08:37","AMMA06",57148.000,"cc",28346.234,6.00,2834.624,1,6,0.100,32027.000,0.200,20532.000,0.300,2963.000,0.500,1020.000,1.000,606.000,5.000,0
"07/01/06","17:08:43","AMMA06",56876.000,"cc",28302.340,6.00,2830.234,1,6,0.100,31666.000,0.200,20717.000,0.300,2901.000,0.500,983.000,1.000,609.000,5.000,0
"07/01/06","17:08:49","AMMA06",57117.000,"cc",28285.348,6.00,2828.535,1,6,0.100,32011.000,0.200,20625.000,0.300,2900.000,0.500,995.000,1.000,585.000,5.000,1.000
"07/01/06","17:08:55","AMMA06",56581.000,"cc",28305.063,6.00,2830.506,1,6,0.100,31518.000,0.200,20335.000,0.300,3035.000,0.500,1012.000,1.000,681.000,5.000,0
"07/01/06","17:09:01","AMMA06",56708.000,"cc",28331.893,6.00,2833.190,1,6,0.100,31818.000,0.200,20291.000,0.300,2924.000,0.500,1026.000,1.000,649.000,5.000,0
"07/01/06","17:09:07","AMMA06",56591.000,"cc",28312.984,6.00,2831.299,1,6,0.100,31792.000,0.200,20229.000,0.300,2930.000,0.500,1014.000,1.000,626.000,5.000,0
"07/01/06","17:09:13","AMMA06",57190.000,"cc",28295.281,6.00,2829.528,1,6,0.100,32232.000,0.200,20429.000,0.300,2914.000,0.500,1004.000,1.000,611.000,5.000,0
"07/01/06","17:09:19","AMMA06",56872.000,"cc",28325.133,6.00,2832.513,1,6,0.100,31813.000,0.200,20467.000,0.300,2952.000,0.500,1012.000,1.000,627.000,5.000,1.000
"07/01/06","17:09:25","AMMA06",57317.000,"cc",28334.961,6.00,2833.496,1,6,0.100,32245.000,0.200,20553.000,0.300,2929.000,0.500,989.000,1.000,601.000,5.000,0
"07/01/06","17:09:31","AMMA06",56598.000,"cc",28349.008,6.00,2834.901,1,6,0.100,31866.000,0.200,20150.000,0.300,2995.000,0.500,951.000,1.000,636.000,5.000,0
"07/01/06","17:09:37","AMMA06",56940.000,"cc",28305.357,6.00,2830.536,1,6,0.100,31931.000,0.200,20440.000,0.300,2961.000,0.500,980.000,1.000,627.000,5.000,1.000
"07/01/06","17:09:43","AMMA06",57134.000,"cc",28290.815,6.00,2829.082,1,6,0.100,32210.000,0.200,20373.000,0.300,2920.000,0.500,1007.000,1.000,621.000,5.000,3.000
"07/01/06","17:09:49","AMMA06",56797.000,"cc",28378.709,6.00,2837.871,1,6,0.100,31893.000,0.200,20315.000,0.300,2948.000,0.500,1011.000,1.000,629.000,5.000,1.000
"07/01/06","17:09:55","AMMA06",57182.000,"cc",28232.240,6.00,2823.224,1,6,0.100,31978.000,0.200,20588.000,0.300,2957.000,0.500,1011.000,1.000,648.000,5.000,0
"07/01/06","17:10:01","AMMA06",57015.000,"cc",28292.719,6.00,2829.272,1,6,0.100,32010.000,0.200,20442.000,0.300,2958.000,0.500,992.000,1.000,613.000,5.000,0
"07/01/06","17:10:07","AMMA06",56722.000,"cc",28402.959,6.00,2840.296,1,6,0.100,31973.000,0.200,20285.000,0.300,2920.000,0.500,941.000,1.000,602.000,5.000,1.000
"07/01/06","17:10:13","AMMA06",56573.000,"cc",28340.664,6.00,2834.067,1,6,0.100,31938.000,0.200,20045.000,0.300,2960.000,0.500,979.000,1.000,650.000,5.000,1.000
"07/01/06","17:10:19","AMMA06",56512.000,"cc",28301.293,6.00,2830.129,1,6,0.100,31745.000,0.200,20335.000,0.300,2861.000,0.500,978.000,1.000,592.000,5.000,1.000
"07/01/06","17:10:25","AMMA06",57019.000,"cc",28317.322,6.00,2831.732,1,6,0.100,31935.000,0.200,20401.000,0.300,3037.000,0.500,989.000,1.000,657.000,5.000,0
"07/01/06","17:10:31","AMMA06",56642.000,"cc",28340.682,6.00,2834.068,1,6,0.100,31878.000,0.200,20118.000,0.300,2949.000,0.500,992.000,1.000,704.000,5.000,1.000
"07/01/06","17:10:37","AMMA06",57134.000,"cc",28243.731,6.00,2824.373,1,6,0.100,31962.000,0.200,20429.000,0.300,3100.000,0.500,992.000,1.000,651.000,5.000,0
"07/01/06","17:10:43","AMMA06",56550.000,"cc",28320.729,6.00,2832.073,1,6,0.100,31441.000,0.200,20577.000,0.300,2907.000,0.500,962.000,1.000,663.000,5.000,0
"07/01/06","17:10:49","AMMA06",57130.000,"cc",28344.525,6.00,2834.453,1,6,0.100,32001.000,0.200,20486.000,0.300,2989.000,0.500,991.000,1.000,661.000,5.000,2.000
"07/01/06","17:10:55","AMMA06",56585.000,"cc",28329.674,6.00,2832.968,1,6,0.100,31479.000,0.200,20559.000,0.300,2933.000,0.500,1036.000,1.000,578.000,5.000,0
"07/01/06","17:11:01","AMMA06",57147.000,"cc",28329.754,6.00,2832.976,1,6,0.100,32002.000,0.200,20503.000,0.300,2965.000,0.500,1043.000,1.000,634.000,5.000,0
"07/01/06","17:11:07","AMMA06",56736.000,"cc",28267.299,6.00,2826.730,1,6,0.100,31927.000,0.200,20133.000,0.300,3012.000,0.500,995.000,1.000,669.000,5.000,0
"07/01/06","17:11:13","AMMA06",56871.000,"cc",28297.438,6.00,2829.744,1,6,0.100,32153.000,0.200,20271.000,0.300,2918.000,0.500,908.000,1.000,621.000,5.000,0
"07/01/06","17:11:19","AMMA06",56847.000,"cc",28320.289,6.00,2832.029,1,6,0.100,31626.000,0.200,20562.000,0.300,2973.000,0.500,1061.000,1.000,625.000,5.000,0
"07/01/06","17:11:25","AMMA06",57025.000,"cc",28322.781,6.00,2832.278,1,6,0.100,32032.000,0.200,20377.000,0.300,2989.000,0.500,1004.000,1.000,623.000,5.000,0
"07/01/06","17:11:31","AMMA06",56601.000,"cc",28338.154,6.00,2833.816,1,6,0.100,31494.000,0.200,20287.000,0.300,3137.000,0.500,1018.000,1.000,664.000,5.000,1.000
"07/01/06","17:11:37","AMMA06",57212.000,"cc",28354.100,6.00,2835.410,1,6,0.100,32068.000,0.200,20497.000,0.300,2974.000,0.500,1010.000,1.000,662.000,5.000,1.000
"07/01/06","17:11:43","AMMA06",56939.000,"cc",28290.518,6.00,2829.052,1,6,0.100,31833.000,0.200,20458.000,0.300,3046.000,0.500,994.000,1.000,608.000,5.000,0
"07/01/06","17:11:49","AMMA06",56899.000,"cc",28280.992,6.00,2828.099,1,6,0.100,31975.000,0.200,20288.000,0.300,3030.000,0.500,974.000,1.000,632.000,5.000,0
"07/01/06","17:11:55","AMMA06",57188.000,"cc",28318.277,6.00,2831.828,1,6,0.100,32026.000,0.200,20504.000,0.300,3029.000,0.500,995.000,1.000,633.000,5.000,1.000
"07/01/06","17:12:01","AMMA06",56927.000,"cc",28314.645,6.00,2831.465,1,6,0.100,31833.000,0.200,20459.000,0.300,3038.000,0.500,973.000,1.000,623.000,5.000,1.000
"07/01/06","17:12:07","AMMA06",56890.000,"cc",28306.211,6.00,2830.621,1,6,0.100,31693.000,0.200,20623.000,0.300,2939.000,0.500,979.000,1.000,656.000,5.000,0
"07/01/06","17:12:13","AMMA06",56621.000,"cc",28386.930,6.00,2838.693,1,6,0.100,31538.000,0.200,20440.000,0.300,3037.000,0.500,962.000,1.000,643.000,5.000,1.000
"07/01/06","17:12:19","AMMA06",56746.000,"cc",28308.797,6.00,2830.880,1,6,0.100,31821.000,0.200,20227.000,0.300,3059.000,0.500,986.000,1.000,652.000,5.000,1.000
"07/01/06","17:12:25","AMMA06",56682.000,"cc",28328.441,6.00,2832.844,1,6,0.100,31821.000,0.200,20369.000,0.300,2922.000,0.500,991.000,1.000,578.000,5.000,1.000
"07/01/06","17:12:31","AMMA06",57014.000,"cc",28290.691,6.00,2829.069,1,6,0.100,32003.000,0.200,20480.000,0.300,2990.000,0.500,975.000,1.000,565.000,5.000,1.000
"07/01/06","17:12:37","AMMA06",57097.000,"cc",28265.492,6.00,2826.549,1,6,0.100,32231.000,0.200,20333.000,0.300,2903.000,0.500,992.000,1.000,637.000,5.000,1.000
"07/01/06","17:12:43","AMMA06",56935.000,"cc",28314.783,6.00,2831.479,1,6,0.100,32115.000,0.200,20285.000,0.300,2939.000,0.500,979.000,1.000,617.000,5.000,0
"07/01/06","17:12:49","AMMA06",56909.000,"cc",28354.393,6.00,2835.440,1,6,0.100,32166.000,0.200,20226.000,0.300,2942.000,0.500,990.000,1.000,584.000,5.000,1.000
"07/01/06","17:12:55","AMMA06",56624.000,"cc",28331.033,6.00,2833.104,1,6,0.100,31878.000,0.200,20169.000,0.300,2959.000,0.500,972.000,1.000,646.000,5.000,0
"07/01/06","17:13:01","AMMA06",56662.000,"cc",28292.732,6.00,2829.273,1,6,0.100,31989.000,0.200,20143.000,0.300,2975.000,0.500,977.000,1.000,578.000,5.000,0
"07/01/06","17:13:07","AMMA06",56578.000,"cc",28317.076,6.00,2831.708,1,6,0.100,31855.000,0.200,20254.000,0.300,2879.000,0.500,944.000,1.000,646.000,5.000,0
"07/01/06","17:13:13","AMMA06",57183.000,"cc",28321.395,6.00,2832.140,1,6,0.100,32228.000,0.200,20270.000,0.300,3016.000,0.500,1040.000,1.000,628.000,5.000,1.000
"07/01/06","17:13:19","AMMA06",57501.000,"cc",28332.719,6.00,2833.272,1,6,0.100,32429.000,0.200,20496.000,0.300,2930.000,0.500,986.000,1.000,659.000,5.000,1.000
"07/01/06","17:13:25","AMMA06",57371.000,"cc",28264.500,6.00,2826.450,1,6,0.100,32096.000,0.200,20794.000,0.300,2838.000,0.500,1008.000,1.000,635.000,5.000,0
"07/01/06","17:13:31","AMMA06",56953.000,"cc",28347.041,6.00,2834.704,1,6,0.100,31944.000,0.200,20459.000,0.300,2937.000,0.500,1007.000,1.000,605.000,5.000,1.000
"07/01/06","17:13:37","AMMA06",57038.000,"cc",28336.129,6.00,2833.613,1,6,0.100,32273.000,0.200,20399.000,0.300,2782.000,0.500,982.000,1.000,602.000,5.000,0
"07/01/06","17:13:43","AMMA06",57417.000,"cc",28263.311,6.00,2826.331,1,6,0.100,32281.000,0.200,20487.000,0.300,2960.000,0.500,1059.000,1.000,630.000,5.000,0
"07/01/06","17:13:49","AMMA06",57088.000,"cc",28317.313,6.00,2831.731,1,6,0.100,32324.000,0.200,20250.000,0.300,2928.000,0.500,991.000,1.000,595.000,5.000,0
"07/01/06","17:13:55","AMMA06",57231.000,"cc",28393.672,6.00,2839.367,1,6,0.100,32312.000,0.200,20365.000,0.300,2894.000,0.500,989.000,1.000,671.000,5.000,0
"07/01/06","17:14:01","AMMA06",57091.000,"cc",28310.039,6.00,2831.004,1,6,0.100,32308.000,0.200,20242.000,0.300,2949.000,0.500,990.000,1.000,602.000,5.000,0